Regional Weather Roundup
Issued by NWS

Home | Current Version | Previous Version | Graphics & Text | Print | Product List | Glossary On
Versions: 1 2 3 4 5 6 7 8 9 10 11 12 13 14 15 16 17 18 19 20 21 22 23 24 25 26 27 28 29 30 31 32 33 34 35 36 37 38 39 40 41 42 43 44 45 46 47 48 49 50
000
ASUS44 KMEG 171310
RWRTN
TENNESSEE HOURLY STATE WEATHER ROUNDUP
NATIONAL WEATHER SERVICE MEMPHIS TN
800 AM CDT THU AUG 17 2017

TNZ002-004-019-021-049-052-054-088>092-171400-
WEST TENNESSEE

CITY           SKY/WX    TMP DP  RH WIND       PRES   REMARKS
MEMPHIS INTL   CLOUDY    79  75  87 SW7       30.01R
NWS MEMPHIS      N/A     78 N/A N/A MISG        N/A
JACKSON        CLOUDY    76  76 100 SW9       30.01R FOG
DYERSBURG      CLOUDY    77  75  93 SW6       29.99R FOG
COVINGTON      CLOUDY    77  75  94 SW8       30.00R FOG
UNION CITY     CLOUDY    75  73  94 S8        29.96S
PARIS          CLOUDY    75  73  94 SW10      29.98S
LEXINGTON      CLOUDY    75  73  94 S8        30.01S
SELMER         CLOUDY    75  73  94 SW8G15    30.03R
SAVANNAH       CLOUDY    77  73  88 SW9       30.03R
$$

TNZ008-025-027-028-033-062-065-066-171400-
NORTH MIDDLE TENNESSEE

CITY           SKY/WX    TMP DP  RH WIND       PRES   REMARKS
NASHVILLE      MOSUNNY   79  73  82 S5        30.04R
PORTLAND       SUNNY     79  73  83 S8        30.02S
CLARKSVILLE    PTSUNNY   77  73  87 S7        29.99S
SMYRNA         MOSUNNY   78  74  87 S6        30.05R
COOKEVILLE     PTSUNNY   77  73  88 S8        30.07R
GALLATIN       MOSUNNY   79  75  89 CALM      30.05S
CROSSVILLE     PTSUNNY   74  71  91 VRB3      30.13S
$$

TNZ061-075-076-078-094-096-097-171400-
SOUTH MIDDLE TENNESSEE

CITY           SKY/WX    TMP DP  RH WIND       PRES   REMARKS
FAYETTEVILLE   CLOUDY    75  73  94 S5        30.08R
TULLAHOMA      MOSUNNY   75  72  88 S5        30.09S
WINCHESTER     SUNNY     77  73  88 SE3       30.09S
MCMINNVILLE    SUNNY     79  79 100 S6        30.08R
COLUMBIA       CLOUDY    75  75 100 SW8       30.03R
SHELBYVILLE    SUNNY     77  73  88 S6        30.06S
$$

TNZ017-018-042-046-047-171400-
NORTHEAST TENNESSEE

CITY           SKY/WX    TMP DP  RH WIND       PRES   REMARKS
TRI CITIES     CLOUDY    71  71 100 CALM      30.12R FOG
ELIZABETHTON   PTSUNNY   73  70  88 CALM      30.12S
$$

TNZ012-013-036-069-073-074-171400-
CENTRAL EAST TENNESSEE

CITY           SKY/WX    TMP DP  RH WIND       PRES   REMARKS
KNOXVILLE      CLOUDY    74  71  91 SW5       30.08R
OAK RIDGE      CLOUDY    76  73  91 SW3       30.10R
DOWNTOWN KNOXV PTSUNNY   77  75  94 CALM      30.08R
GATLINBURG     CLOUDY    73  68  83 VRB3      30.08S
MORRISTOWN     CLOUDY    75  73  94 CALM      30.10R
$$

TNZ083-085-099-171400-
SOUTHEAST TENNESSEE

CITY           SKY/WX    TMP DP  RH WIND       PRES   REMARKS
CHATTANOOGA    MOSUNNY   80  73  79 S3        30.09R
DAYTON         CLOUDY    75  75 100 SW3       30.08R FOG
$$

SKY/WX REPORTED AS FAIR MEANS FEW OR NO CLOUDS BELOW
12 THOUSAND FEET.




USA.gov is the U.S. government's official web portal to all federal, state and local government web resources and services.